CZ-3C DEB, 40835

Orbit data source: Space-Track

CZ-3C DEB, 40835 is space debris in HEO originally from a launch on Sun, 31 Oct 2010 UTC launched from the Xichang Space Center, China (XSC). Debris objects in space refer to the collection of defunct objects orbiting the Earth. Examples of debris include non-operational satellites, rocket bodies, and fragments generated from explosions, collisions, or faulty payload assembly.

Loading next visibility...
Identifier
40835, 2010-057BC
Orbit
HEO
Country
Flag of CNCN / PRC
Related business
Manufacturer
CALT
Mission
Spacecraft
Bus & Motor
Unknown
Mass
Unknown
Launch date (UTC)
2010-10-31 (15 years ago)
Launch vehicle
Unknown
Launch site
Xichang Space Center, China (XSC)
Object type
Payload
Rocket body
Debris
Shape & HBR
Unknown shape, 0.2 m
Radar Cross Section
Small (<0.1 m²)

Expand to show TLE details & history
Last TLE update: 2 days ago

TLE from 2 days ago
0 CZ-3C DEB
1 40835U 10057BC  26102.59076986 -.00000042  00000-0  15714-3 0  9992
2 40835  19.5447 137.4765 7210473  96.6198 342.3891  2.20288748 10910
Epoch: 2026-04-12T14:10Z
TLE epoch observation values (Epoch: 2026-04-12T14:10:42.515Z)
Latitude
-0.00004°
Longitude
84.17224°
Altitude
6,627.566 km
Speed
6.732 km/s
True Right ascension
09h 10m 34s
True Declination
0° 00' 00"
Sunlit
Object was in daylight at epoch
Visualization orbit readout
Latitude
Unknown
Longitude
Unknown
Altitude
Unknown
Speed
Unknown
Apparent Right ascension
Unknown
Apparent Declination
Unknown
Sunlit
N/A
Visualization observer readout
Local Sidereal Time
04:21:42
Azimuth
Unknown
Elevation
Unknown
Doppler factor
Unknown
Orbital elements
Apogee altitude
36,569.925 km
Perigee altitude
583.018 km
Semi-major axis
24,954.609 km
Eccentricity
0.72105
Inclination
19.5447°
RAAN
137.4765°
Arg. of periapsis
96.6198°
True anomaly
263.44305°
Mean anomaly
342.3891°
Eccentric anomaly
311.39959°
Mean motion
0.55058 °/min
Orbital period
653.86 mins
BSTAR
0.00015714
Loading maneuver chart data...
Computing Atmospheric mass density...
Loading historical data...
Loading historical data...
Loading historical data...
Loading historical data...
Loading historical data...
Loading historical data...
Loading historical data...

Documentation

Showing up to 5 results
|